When you browse on this site, cookies collect data to enhance your experience and personalize the content and advertising you see.
Visit our Privacy Policy to learn more. By continuing to use the site, you agree to this use of cookies and data.
  • In United Kingdom
  • List of Countries
  • For 7 days
  • Water Temperature
  • Satellite Maps
  • Weather Map
  • Weather Widgets
  • user-avatar
    Login

    Hourly Weather Pontypridd

    Today, 18 April, Thursday

    Time Temperature Precipitation Wind Pressure Humidity
    00:00 +9°C° 0 mm 3 mps 755 mmHg 93%
    01:00 +8°C° 0 mm 4 mps 755 mmHg 93%
    02:00 +8°C° 0 mm 4 mps 755 mmHg 92%
    03:00 +7°C° 0 mm 4 mps 755 mmHg 91%
    04:00 +7°C° 0 mm 5 mps 755 mmHg 92%
    05:00 +7°C° 0 mm 5 mps 755 mmHg 93%
    06:00 +7°C° 0 mm 5 mps 755 mmHg 93%
    07:00 +8°C° 0 mm 5 mps 755 mmHg 90%
    08:00 +10°C° 0 mm 6 mps 756 mmHg 87%
    09:00 +11°C° 0 mm 6 mps 756 mmHg 84%
    10:00 +12°C° 0 mm 7 mps 756 mmHg 80%
    11:00 +14°C° 0 mm 7 mps 756 mmHg 76%
    12:00 +16°C° 0 mm 7 mps 756 mmHg 72%
    13:00 +16°C° 0 mm 6 mps 756 mmHg 72%
    14:00 +17°C° 0 mm 6 mps 756 mmHg 71%
    15:00 +17°C° 0 mm 5 mps 756 mmHg 71%
    16:00 +16°C° 0 mm 5 mps 756 mmHg 74%
    17:00 +17°C° 0 mm 4 mps 757 mmHg 77%
    18:00 +16°C° 0 mm 3 mps 757 mmHg 81%
    19:00 +15°C° 0 mm 4 mps 757 mmHg 83%
    20:00 +14°C° 0 mm 4 mps 758 mmHg 86%
    21:00 +13°C° 0 mm 4 mps 758 mmHg 88%
    22:00 +12°C° 0 mm 4 mps 758 mmHg 86%
    23:00 +12°C° 0 mm 4 mps 759 mmHg 83%

    Tomorrow, 19 April, Friday

    Time Temperature Precipitation Wind Pressure Humidity
    00:00 +11°C° 0 mm 4 mps 759 mmHg 81%
    01:00 +10°C° 0 mm 4 mps 759 mmHg 82%
    02:00 +10°C° 0 mm 4 mps 759 mmHg 83%
    03:00 +8°C° 0 mm 4 mps 759 mmHg 85%
    04:00 +8°C° 0 mm 4 mps 759 mmHg 85%
    05:00 +8°C° 0 mm 4 mps 760 mmHg 86%
    06:00 +8°C° 0 mm 4 mps 760 mmHg 86%
    07:00 +10°C° 0 mm 4 mps 760 mmHg 83%
    08:00 +12°C° 0 mm 4 mps 761 mmHg 80%
    09:00 +13°C° 0 mm 5 mps 761 mmHg 76%
    10:00 +15°C° 0 mm 4 mps 761 mmHg 73%
    11:00 +18°C° 0 mm 4 mps 761 mmHg 69%
    12:00 +19°C° 0 mm 4 mps 761 mmHg 65%
    13:00 +20°C° 0 mm 4 mps 761 mmHg 65%
    14:00 +20°C° 0 mm 4 mps 761 mmHg 64%
    15:00 +20°C° 0 mm 3 mps 762 mmHg 63%
    16:00 +20°C° 0 mm 3 mps 762 mmHg 68%
    17:00 +19°C° 0 mm 3 mps 762 mmHg 73%
    18:00 +18°C° 0 mm 3 mps 762 mmHg 78%
    19:00 +17°C° 0 mm 3 mps 762 mmHg 80%
    20:00 +14°C° 0 mm 3 mps 762 mmHg 82%
    21:00 +13°C° 0 mm 3 mps 763 mmHg 84%
    22:00 +12°C° 0 mm 3 mps 763 mmHg 85%
    23:00 +12°C° 0 mm 3 mps 763 mmHg 87%

    Day after tomorrow, 20 April, Saturday

    Time Temperature Precipitation Wind Pressure Humidity
    00:00 +11°C° 0 mm 3 mps 763 mmHg 88%
    01:00 +11°C° 0 mm 3 mps 763 mmHg 89%
    02:00 +10°C° 0 mm 2 mps 763 mmHg 90%
    03:00 +10°C° 0 mm 2 mps 763 mmHg 91%
    04:00 +10°C° 0 mm 2 mps 763 mmHg 90%
    05:00 +9°C° 0 mm 2 mps 763 mmHg 89%
    06:00 +9°C° 0 mm 3 mps 763 mmHg 88%
    07:00 +11°C° 0 mm 3 mps 763 mmHg 82%
    08:00 +13°C° 0 mm 3 mps 763 mmHg 76%
    09:00 +16°C° 0 mm 3 mps 763 mmHg 69%
    10:00 +17°C° 0 mm 3 mps 763 mmHg 66%
    11:00 +18°C° 0 mm 3 mps 762 mmHg 63%
    12:00 +19°C° 0 mm 3 mps 762 mmHg 60%
    13:00 +20°C° 0 mm 3 mps 762 mmHg 59%
    14:00 +20°C° 0 mm 2 mps 762 mmHg 58%
    15:00 +21°C° 0 mm 2 mps 761 mmHg 57%
    16:00 +20°C° 0 mm 2 mps 761 mmHg 62%
    17:00 +20°C° 0 mm 1 mps 761 mmHg 67%
    18:00 +20°C° 0 mm 1 mps 761 mmHg 72%
    19:00 +18°C° 0 mm 1 mps 761 mmHg 76%
    20:00 +16°C° 0 mm 2 mps 761 mmHg 80%
    21:00 +14°C° 0 mm 2 mps 761 mmHg 84%
    22:00 +13°C° 0 mm 2 mps 760 mmHg 85%
    23:00 +13°C° 0 mm 2 mps 760 mmHg 86%

    21 April, Sunday

    Time Temperature Precipitation Wind Pressure Humidity
    00:00 +12°C° 0 mm 2 mps 760 mmHg 87%
    01:00 +12°C° 0 mm 2 mps 759 mmHg 89%
    02:00 +12°C° 0 mm 2 mps 759 mmHg 90%
    03:00 +10°C° 0 mm 2 mps 758 mmHg 91%
    04:00 +10°C° 0 mm 2 mps 758 mmHg 91%
    05:00 +10°C° 0 mm 2 mps 758 mmHg 91%
    06:00 +10°C° 0 mm 2 mps 757 mmHg 91%
    07:00 +13°C° 0 mm 2 mps 757 mmHg 86%
    08:00 +14°C° 0 mm 2 mps 757 mmHg 80%
    09:00 +16°C° 0 mm 2 mps 757 mmHg 74%
    10:00 +17°C° 0 mm 2 mps 756 mmHg 70%
    11:00 +18°C° 0 mm 2 mps 756 mmHg 65%
    12:00 +18°C° 0 mm 2 mps 755 mmHg 60%
    13:00 +19°C° 0 mm 2 mps 755 mmHg 58%
    14:00 +19°C° 0 mm 2 mps 754 mmHg 55%
    15:00 +19°C° 0 mm 2 mps 753 mmHg 53%
    16:00 +20°C° 0 mm 1 mps 753 mmHg 58%
    17:00 +19°C° 0 mm 1 mps 753 mmHg 63%
    18:00 +19°C° 0 mm 1 mps 752 mmHg 68%
    19:00 +16°C° 0 mm 1 mps 752 mmHg 73%
    20:00 +15°C° 0 mm 1 mps 752 mmHg 78%
    21:00 +13°C° 0 mm 2 mps 752 mmHg 83%
    22:00 +12°C° 0 mm 2 mps 751 mmHg 85%
    23:00 +12°C° 0 mm 2 mps 751 mmHg 88%

    22 April, Monday

    Time Temperature Precipitation Wind Pressure Humidity
    00:00 +11°C° 0 mm 1 mps 750 mmHg 91%
    01:00 +10°C° 0 mm 2 mps 750 mmHg 92%
    02:00 +10°C° 0 mm 2 mps 749 mmHg 93%
    03:00 +9°C° 0 mm 2 mps 749 mmHg 94%
    04:00 +9°C° 0 mm 2 mps 748 mmHg 94%
    05:00 +9°C° 0 mm 2 mps 748 mmHg 95%
    06:00 +9°C° 0 mm 3 mps 748 mmHg 95%
    07:00 +11°C° 0 mm 3 mps 748 mmHg 90%
    08:00 +12°C° 0 mm 3 mps 747 mmHg 84%
    09:00 +14°C° 0 mm 4 mps 747 mmHg 79%
    10:00 +15°C° 0 mm 4 mps 747 mmHg 73%
    11:00 +18°C° 0 mm 4 mps 747 mmHg 67%
    12:00 +19°C° 0 mm 4 mps 747 mmHg 61%
    13:00 +19°C° 0 mm 4 mps 746 mmHg 60%
    14:00 +20°C° 0 mm 4 mps 746 mmHg 60%
    15:00 +20°C° 0 mm 4 mps 745 mmHg 59%
    16:00 +19°C° 0 mm 4 mps 745 mmHg 64%
    17:00 +18°C° 0 mm 3 mps 745 mmHg 69%
    18:00 +18°C° 0 mm 2 mps 745 mmHg 74%
    19:00 +16°C° 0 mm 2 mps 745 mmHg 79%
    20:00 +15°C° 0 mm 2 mps 745 mmHg 83%
    21:00 +13°C° 0 mm 1 mps 745 mmHg 87%
    22:00 +13°C° 0 mm 2 mps 745 mmHg 89%
    23:00 +12°C° 0 mm 2 mps 745 mmHg 90%

    23 April, Tuesday

    Time Temperature Precipitation Wind Pressure Humidity
    00:00 +11°C° 0 mm 3 mps 745 mmHg 91%
    01:00 +10°C° 0 mm 3 mps 744 mmHg 91%
    02:00 +9°C° 0 mm 3 mps 744 mmHg 91%
    03:00 +8°C° 0 mm 4 mps 744 mmHg 90%
    04:00 +8°C° 0 mm 4 mps 744 mmHg 89%
    05:00 +8°C° 0 mm 4 mps 743 mmHg 88%
    06:00 +8°C° 0 mm 5 mps 743 mmHg 88%
    07:00 +9°C° 0 mm 5 mps 743 mmHg 84%
    08:00 +12°C° 0 mm 5 mps 743 mmHg 81%
    09:00 +13°C° 0 mm 5 mps 744 mmHg 77%
    10:00 +15°C° 0 mm 5 mps 744 mmHg 73%
    11:00 +17°C° 0 mm 6 mps 744 mmHg 68%
    12:00 +19°C° 0 mm 6 mps 744 mmHg 63%
    13:00 +20°C° 0.1 mm 5 mps 744 mmHg 63%
    14:00 +20°C° 0.1 mm 5 mps 744 mmHg 63%
    15:00 +20°C° 0.1 mm 5 mps 744 mmHg 63%
    16:00 +19°C° 0.3 mm 4 mps 744 mmHg 68%
    17:00 +18°C° 0.3 mm 3 mps 744 mmHg 74%
    18:00 +17°C° 0.3 mm 3 mps 744 mmHg 79%
    19:00 +16°C° 0 mm 3 mps 745 mmHg 83%
    20:00 +14°C° 0 mm 3 mps 745 mmHg 86%
    21:00 +12°C° 0 mm 3 mps 746 mmHg 89%
    22:00 +12°C° 0 mm 3 mps 746 mmHg 91%
    23:00 +11°C° 0 mm 3 mps 746 mmHg 92%
    Show more